Hourly Data Report for April 16, 2018

KUGAARUK CLIMATE
NUNAVUT
Current Station Operator: ECCC - MSC

68°32'15.060" N
89°47'47.020" W
15.80 m
2303094
71407
NBB

Download Data

Hourly Data (April 2018)
Hourly Data Report for April 16, 2018
TIME
LST
Temp Definition
°C
Dew Point Definition
°C
Rel Hum Definition
%
Precip. Amount Definition
mm

Wind Dir Definition
10's deg

Wind Spd Definition
km/h
Visibility Definition
km
Stn Press Definition
kPa
Hmdx Definition


Wind Chill Definition


Weather Definition


00:00 -14.5 -16.7 84 0.0 4 7   102.14   -19 LegendNANA
01:00 -14.8 -16.6 87 0.0 34 5   102.21   -18 LegendNANA
02:00 -15.6 -17.4 86 0.0 13 3   102.24   -18 LegendNANA
03:00 -16.4 -18.7 83 0.0 4 4   102.32   -19 LegendNANA
04:00 -16.7 -18.7 85 0.0 4 9   102.36   -23 LegendNANA
05:00 -16.4 -18.5 84 0.0 4 8   102.42   -22 LegendNANA
06:00 -17.6 -20.3 80 0.0 2 12   102.46   -25 LegendNANA
07:00 -18.7 -22.1 75 0.0 1 11   102.49   -26 LegendNANA
08:00 -18.4 -22.9 67 0.0 35 8   102.52   -24 LegendNANA
09:00 -17.7 -22.4 67 0.0 22 10   102.53   -24 LegendNANA
10:00 -17.3 -21.7 69 0.0 24 15   102.54   -26 LegendNANA
11:00 -17.3 -22.7 63 0.0 26 14   102.56   -25 LegendNANA
12:00 -16.9 -21.9 65 0.0 26 16   102.54   -26 LegendNANA
13:00 -16.1 -20.8 67 0.0 23 14   102.55   -24 LegendNANA
14:00 -15.3 -19.9 68 0.0 27 20   102.55   -25 LegendNANA
15:00 -16.2 -21.6 64 0.0 28 20   102.59   -26 LegendNANA
16:00 -17.3 -22.2 66 0.0 26 19   102.60   -27 LegendNANA
17:00 -18.7 -22.6 71 0.0 26 24   102.62   -30 LegendNANA
18:00 -19.1 -22.8 73 0.0 24 22   102.64   -30 LegendNANA
19:00 -19.6 -23.3 72 0.0 26 27   102.65   -31 LegendNANA
20:00 -22.2 -25.5 74 0.0 25 19   102.66   -33 LegendNANA
21:00 -21.2 -24.5 75 0.0 22 26   102.65   -33 LegendNANA
22:00 -21.4 -24.6 75 0.0 22 25   102.67   -33 LegendNANA
23:00 -21.6 -24.8 75 0.0 23 29   102.68   -34 LegendNANA

Notes on Data Quality.

Legend

  • E = Estimated
  • M = Missing
  • NA = Not Available*
  • [empty] = Indicates an unobserved value
Date modified: